OCN7YP LEPA-EDDM

Flight info

Callsign OCN7YP
Flight time 1h 36m
Altitude 32000
Route MEROS DCT LAPIT DCT CHELY DCT LUMAS/N0447F340 DCT UNANA/N0455F300 DCT STP/N0446F360 DCT RAPED DCT PIGOS DCT EKSID DCT NOSTA DCT NOPMU DCT VAKON DCT TAGIP DCT GUNGO DCT TISAX DCT IVKAL T102 NINUR T101 BETOS BETOS1A
Aircraft A320/M-SDE3FGHIRWY/LB1

Departure

Time 2026-05-04 18:16
Airport Palma de Mallorca Airport (LEPA)

Arrival

Time 2026-05-04 19:53
Airport Munich Airport (EDDM)
Time Latitude Longitude Altitude Speed Heading
2026-05-04 17:16 39.54693 2.73386 38 ft 0 kts 239°
2026-05-04 18:03 39.54699 2.73398 38 ft 4 kts 238°
2026-05-04 18:03 39.54714 2.73428 37 ft 4 kts 232°
2026-05-04 18:03 39.54732 2.73452 36 ft 4 kts 206°
2026-05-04 18:03 39.54750 2.73456 37 ft 1 kts 150°
2026-05-04 18:07 39.54737 2.73466 36 ft 7 kts 150°
2026-05-04 18:07 39.54680 2.73510 38 ft 12 kts 148°
2026-05-04 18:07 39.54623 2.73580 38 ft 8 kts 98°
2026-05-04 18:08 39.54631 2.73608 38 ft 3 kts 53°
2026-05-04 18:08 39.54660 2.73665 37 ft 8 kts 59°
2026-05-04 18:08 39.54700 2.73755 38 ft 12 kts 60°
2026-05-04 18:08 39.54740 2.73846 38 ft 14 kts 58°
2026-05-04 18:09 39.54902 2.73959 38 ft 12 kts 336°
2026-05-04 18:09 39.55030 2.73966 38 ft 13 kts 328°
2026-05-04 18:10 39.55130 2.73886 37 ft 19 kts 329°
2026-05-04 18:10 39.55243 2.73796 37 ft 18 kts 328°
2026-05-04 18:10 39.55349 2.73712 38 ft 17 kts 328°
2026-05-04 18:10 39.55443 2.73637 38 ft 15 kts 330°
2026-05-04 18:11 39.55527 2.73572 38 ft 14 kts 327°
2026-05-04 18:11 39.55619 2.73505 38 ft 15 kts 341°
2026-05-04 18:11 39.55698 2.73592 37 ft 17 kts 52°
2026-05-04 18:11 39.55776 2.73755 38 ft 29 kts 57°
2026-05-04 18:12 39.55884 2.73984 38 ft 30 kts 59°
2026-05-04 18:12 39.55993 2.74219 38 ft 30 kts 57°
2026-05-04 18:12 39.56101 2.74434 38 ft 22 kts 46°
2026-05-04 18:12 39.56137 2.74446 38 ft 0 kts
2026-05-04 18:13 39.56138 2.74446 38 ft 1 kts
2026-05-04 18:13 39.56144 2.74445 38 ft 0 kts 351°
2026-05-04 18:14 39.56145 2.74445 38 ft 1 kts 348°
2026-05-04 18:15 39.56232 2.74300 38 ft 16 kts 237°
2026-05-04 18:15 39.55910 2.73611 38 ft 101 kts 239°
2026-05-04 18:15 39.55452 2.72638 40 ft 150 kts 238°
2026-05-04 18:16 39.54887 2.71432 532 ft 157 kts 239°
2026-05-04 18:16 39.54318 2.70209 1220 ft 159 kts 237°
2026-05-04 18:16 39.53708 2.68919 1583 ft 179 kts 238°
2026-05-04 18:17 39.52305 2.65948 2511 ft 205 kts 238°
2026-05-04 18:17 39.51562 2.64374 3282 ft 205 kts 238°
2026-05-04 18:17 39.50029 2.61249 4843 ft 206 kts 230°
2026-05-04 18:18 39.48873 2.60107 5314 ft 223 kts 210°
2026-05-04 18:18 39.47443 2.59170 5912 ft 233 kts 210°
2026-05-04 18:18 39.45937 2.58204 6295 ft 254 kts 209°
2026-05-04 18:18 39.44337 2.57192 7018 ft 259 kts 208°
2026-05-04 18:19 39.40674 2.56984 8534 ft 285 kts 163°
2026-05-04 18:19 39.39012 2.58459 9343 ft 300 kts 137°
2026-05-04 18:19 39.37944 2.60835 10093 ft 316 kts 111°
2026-05-04 18:20 39.37767 2.63696 10796 ft 328 kts 83°
2026-05-04 18:20 39.38580 2.66534 11104 ft 349 kts 58°
2026-05-04 18:20 39.40075 2.69100 11402 ft 366 kts 46°
2026-05-04 18:20 39.41871 2.71500 11839 ft 378 kts 44°
2026-05-04 18:21 39.43712 2.74023 12196 ft 393 kts 46°
2026-05-04 18:21 39.45548 2.76714 12729 ft 401 kts 48°
2026-05-04 18:21 39.47276 2.79352 13346 ft 405 kts 49°
2026-05-04 18:21 39.49091 2.82164 13973 ft 408 kts 49°
2026-05-04 18:22 39.50923 2.84994 14564 ft 412 kts 49°
2026-05-04 18:22 39.52784 2.87837 15107 ft 416 kts 48°
2026-05-04 18:22 39.54679 2.90700 15652 ft 420 kts 47°
2026-05-04 18:22 39.56597 2.93569 16232 ft 422 kts 47°
2026-05-04 18:23 39.58535 2.96458 16760 ft 426 kts 47°
2026-05-04 18:23 39.60488 2.99374 17300 ft 430 kts 47°
2026-05-04 18:23 39.62449 3.02306 17806 ft 434 kts 47°
2026-05-04 18:23 39.64439 3.05288 18288 ft 437 kts 47°
2026-05-04 18:24 39.66435 3.08289 18722 ft 441 kts 47°
2026-05-04 18:24 39.68443 3.11307 19147 ft 445 kts 47°
2026-05-04 18:24 39.70481 3.14373 19548 ft 449 kts 47°
2026-05-04 18:24 39.72530 3.17459 19935 ft 454 kts 47°
2026-05-04 18:25 39.74599 3.20582 20331 ft 458 kts 47°
2026-05-04 18:25 39.76681 3.23729 20747 ft 462 kts 48°
2026-05-04 18:25 39.78778 3.26907 21180 ft 465 kts 48°
2026-05-04 18:25 39.80893 3.30112 21562 ft 468 kts 48°
2026-05-04 18:26 39.83018 3.33334 21947 ft 472 kts 48°
2026-05-04 18:26 39.85170 3.36605 22324 ft 476 kts 48°
2026-05-04 18:26 39.87389 3.39820 22688 ft 478 kts 40°
2026-05-04 18:26 39.90055 3.42381 23027 ft 476 kts 25°
2026-05-04 18:27 39.92984 3.44364 23379 ft 478 kts 22°
2026-05-04 18:27 39.95965 3.46334 23697 ft 481 kts 22°
2026-05-04 18:27 39.98969 3.48305 24019 ft 483 kts 22°
2026-05-04 18:27 40.01979 3.50274 24383 ft 484 kts 22°
2026-05-04 18:28 40.04995 3.52249 24710 ft 487 kts 22°
2026-05-04 18:28 40.08025 3.54240 25023 ft 489 kts 23°
2026-05-04 18:28 40.11079 3.56259 25326 ft 492 kts 23°
2026-05-04 18:28 40.14137 3.58287 25630 ft 494 kts 23°
2026-05-04 18:29 40.17199 3.60321 25925 ft 496 kts 23°
2026-05-04 18:29 40.20293 3.62379 26249 ft 499 kts 23°
2026-05-04 18:29 40.23381 3.64432 26595 ft 499 kts 23°
2026-05-04 18:29 40.26484 3.66495 26899 ft 501 kts 23°
2026-05-04 18:30 40.32728 3.70651 27442 ft 505 kts 23°
2026-05-04 18:30 40.34806 3.72033 27602 ft 506 kts 23°
2026-05-04 18:30 40.39016 3.74839 27957 ft 509 kts 24°
2026-05-04 18:31 40.41117 3.76243 28131 ft 511 kts 24°
2026-05-04 18:31 40.44282 3.78361 28443 ft 512 kts 24°
2026-05-04 18:31 40.47453 3.80486 28708 ft 513 kts 24°
2026-05-04 18:31 40.50643 3.82628 29012 ft 514 kts 24°
2026-05-04 18:32 40.53830 3.84771 29351 ft 514 kts 24°
2026-05-04 18:32 40.57010 3.86910 29687 ft 514 kts 24°
2026-05-04 18:32 40.60195 3.89050 30017 ft 514 kts 24°
2026-05-04 18:32 40.63381 3.91193 30308 ft 514 kts 24°
2026-05-04 18:33 40.66558 3.93331 30618 ft 513 kts 24°
2026-05-04 18:33 40.69739 3.95476 30918 ft 513 kts 24°
2026-05-04 18:33 40.72910 3.97620 31232 ft 512 kts 24°
2026-05-04 18:33 40.76057 3.99750 31535 ft 511 kts 24°
2026-05-04 18:34 40.79234 4.01901 31853 ft 511 kts 24°
2026-05-04 18:34 40.82399 4.04046 32166 ft 510 kts 24°
2026-05-04 18:34 40.85546 4.06181 32507 ft 509 kts 24°
2026-05-04 18:34 40.88696 4.08317 32819 ft 507 kts 24°
2026-05-04 18:35 40.91831 4.10444 33143 ft 507 kts 24°
2026-05-04 18:35 40.94969 4.12576 33447 ft 506 kts 23°
2026-05-04 18:35 40.98096 4.14704 33750 ft 505 kts 23°
2026-05-04 18:35 41.01225 4.16839 34035 ft 505 kts 24°
2026-05-04 18:36 41.04342 4.18972 34290 ft 504 kts 24°
2026-05-04 18:36 41.07459 4.21108 34529 ft 504 kts 24°
2026-05-04 18:36 41.10579 4.23243 34784 ft 504 kts 23°
2026-05-04 18:36 41.13695 4.25373 35032 ft 503 kts 23°
2026-05-04 18:37 41.16799 4.27499 35262 ft 502 kts 23°
2026-05-04 18:37 41.19904 4.29627 35503 ft 502 kts 23°
2026-05-04 18:37 41.23005 4.31755 35727 ft 501 kts 23°
2026-05-04 18:37 41.26105 4.33888 35891 ft 501 kts 23°
2026-05-04 18:38 41.29198 4.36020 35938 ft 502 kts 24°
2026-05-04 18:38 41.35397 4.40296 35930 ft 502 kts 24°
2026-05-04 18:39 41.41610 4.44587 35937 ft 502 kts 24°
2026-05-04 18:39 41.47812 4.48878 35956 ft 502 kts 24°
2026-05-04 18:40 41.54008 4.53189 35941 ft 502 kts 24°
2026-05-04 18:40 41.60196 4.57498 35911 ft 502 kts 24°
2026-05-04 18:41 41.66387 4.61804 35927 ft 501 kts 24°
2026-05-04 18:41 41.72493 4.66322 35949 ft 503 kts 32°
2026-05-04 18:42 41.77732 4.72476 35947 ft 506 kts 43°
2026-05-04 18:42 41.82744 4.79102 35950 ft 506 kts 43°
2026-05-04 18:43 41.87762 4.85715 35946 ft 506 kts 43°
2026-05-04 18:43 41.92769 4.92342 35966 ft 506 kts 43°
2026-05-04 18:44 41.97768 4.98990 35939 ft 505 kts 44°
2026-05-04 18:44 42.02762 5.05646 35940 ft 506 kts 43°
2026-05-04 18:45 42.07755 5.12307 35940 ft 506 kts 44°
2026-05-04 18:45 42.12729 5.18969 35972 ft 506 kts 44°
2026-05-04 18:46 42.17716 5.25667 35972 ft 506 kts 44°
2026-05-04 18:46 42.22692 5.32372 35967 ft 506 kts 44°
2026-05-04 18:47 42.27676 5.39085 35947 ft 506 kts 44°
2026-05-04 18:47 42.32661 5.45812 35970 ft 506 kts 44°
2026-05-04 18:48 42.37638 5.52556 35971 ft 506 kts 44°
2026-05-04 18:48 42.42612 5.59300 35977 ft 507 kts 44°
2026-05-04 18:49 42.47579 5.66063 36005 ft 507 kts 44°
2026-05-04 18:49 42.52547 5.72840 35968 ft 507 kts 44°
2026-05-04 18:50 42.57505 5.79632 35993 ft 507 kts 44°
2026-05-04 18:50 42.62474 5.86443 35990 ft 507 kts 44°
2026-05-04 18:51 42.67442 5.93264 35995 ft 508 kts 44°
2026-05-04 18:51 42.72391 6.00076 36002 ft 508 kts 44°
2026-05-04 18:52 42.77312 6.06887 36007 ft 508 kts 44°
2026-05-04 18:52 42.82267 6.13744 35967 ft 508 kts 44°
2026-05-04 18:53 42.87398 6.20360 35993 ft 506 kts 38°
2026-05-04 18:53 42.92797 6.26534 36027 ft 506 kts 38°
2026-05-04 18:54 42.98185 6.32713 36029 ft 506 kts 38°
2026-05-04 18:54 43.03577 6.38925 36027 ft 506 kts 38°
2026-05-04 18:55 43.08956 6.45130 36045 ft 506 kts 38°
2026-05-04 18:55 43.17015 6.54449 36030 ft 505 kts 38°
2026-05-04 18:56 43.22165 6.60880 36030 ft 507 kts 47°
2026-05-04 18:56 43.26437 6.68655 36047 ft 507 kts 53°
2026-05-04 18:57 43.30542 6.76450 36055 ft 507 kts 53°
2026-05-04 18:57 43.34680 6.84279 36043 ft 507 kts 53°
2026-05-04 18:58 43.38813 6.92146 36038 ft 507 kts 53°
2026-05-04 18:58 43.42939 7.00019 36072 ft 507 kts 53°
2026-05-04 18:59 43.47055 7.07901 36075 ft 506 kts 53°
2026-05-04 18:59 43.50466 7.14443 36073 ft 506 kts 53°
2026-05-04 19:00 43.55225 7.23607 36063 ft 505 kts 53°
2026-05-04 19:00 43.59308 7.31486 36066 ft 505 kts 53°
2026-05-04 19:01 43.63396 7.39390 36083 ft 505 kts 53°
2026-05-04 19:01 43.67472 7.47287 36072 ft 504 kts 53°
2026-05-04 19:02 43.71515 7.55133 36059 ft 504 kts 54°
2026-05-04 19:02 43.75578 7.63070 36053 ft 504 kts 54°
2026-05-04 19:03 43.79623 7.70989 36067 ft 503 kts 53°
2026-05-04 19:03 43.84326 7.78059 36082 ft 498 kts 36°
2026-05-04 19:04 43.89785 7.83941 36088 ft 496 kts 35°
2026-05-04 19:04 43.95221 7.89863 36095 ft 498 kts 39°
2026-05-04 19:05 44.00206 7.96424 36133 ft 498 kts 41°
2026-05-04 19:05 44.05207 8.03075 36109 ft 498 kts 41°
2026-05-04 19:06 44.10237 8.09782 36103 ft 497 kts 41°
2026-05-04 19:06 44.15200 8.16413 36128 ft 497 kts 41°
2026-05-04 19:07 44.20171 8.23075 36129 ft 495 kts 42°
2026-05-04 19:07 44.25132 8.29743 36123 ft 494 kts 42°
2026-05-04 19:08 44.30078 8.36412 36092 ft 494 kts 41°
2026-05-04 19:08 44.35023 8.43078 36107 ft 494 kts 42°
2026-05-04 19:09 44.39957 8.49747 36117 ft 493 kts 42°
2026-05-04 19:09 44.44861 8.56396 36122 ft 492 kts 42°
2026-05-04 19:10 44.48118 8.60818 36115 ft 492 kts 42°
2026-05-04 19:10 44.54684 8.69752 36119 ft 492 kts 42°
2026-05-04 19:11 44.59578 8.76454 36099 ft 492 kts 42°
2026-05-04 19:11 44.64473 8.83180 36098 ft 491 kts 42°
2026-05-04 19:12 44.71795 8.93256 36108 ft 490 kts 42°
2026-05-04 19:13 44.75846 8.98836 36102 ft 490 kts 42°
2026-05-04 19:13 44.80714 9.05552 36097 ft 490 kts 42°
2026-05-04 19:14 44.85568 9.12274 36109 ft 489 kts 43°
2026-05-04 19:14 44.90403 9.18987 36087 ft 488 kts 42°
2026-05-04 19:15 44.95251 9.25731 36084 ft 488 kts 42°
2026-05-04 19:15 45.00064 9.32458 36088 ft 488 kts 42°
2026-05-04 19:16 45.04876 9.39198 36089 ft 487 kts 43°
2026-05-04 19:16 45.09682 9.45940 36083 ft 486 kts 43°
2026-05-04 19:17 45.14479 9.52674 36078 ft 485 kts 43°
2026-05-04 19:17 45.19265 9.59403 36079 ft 484 kts 43°
2026-05-04 19:18 45.24028 9.66137 36091 ft 483 kts 43°
2026-05-04 19:18 45.28778 9.72877 36087 ft 482 kts 43°
2026-05-04 19:19 45.33523 9.79613 36094 ft 482 kts 43°
2026-05-04 19:19 45.38255 9.86347 36071 ft 481 kts 43°
2026-05-04 19:20 45.42970 9.93079 36067 ft 480 kts 43°
2026-05-04 19:20 45.47685 9.99831 36069 ft 480 kts 43°
2026-05-04 19:21 45.52539 10.06959 36059 ft 480 kts 44°
2026-05-04 19:21 45.56902 10.13585 36075 ft 479 kts 45°
2026-05-04 19:22 45.61464 10.20517 36058 ft 478 kts 45°
2026-05-04 19:22 45.66007 10.27368 36080 ft 477 kts 45°
2026-05-04 19:23 45.70575 10.34261 36125 ft 477 kts 45°
2026-05-04 19:23 45.75124 10.41158 36132 ft 476 kts 45°
2026-05-04 19:24 45.79659 10.48054 36133 ft 476 kts 45°
2026-05-04 19:24 45.84196 10.54962 36145 ft 475 kts 45°
2026-05-04 19:25 45.88729 10.61867 36168 ft 476 kts 45°
2026-05-04 19:25 45.93439 10.68499 36182 ft 473 kts 35°
2026-05-04 19:25 45.96236 10.70929 36178 ft 468 kts 21°
2026-05-04 19:26 45.99299 10.72346 36185 ft 462 kts
2026-05-04 19:26 46.05590 10.74262 36174 ft 463 kts
2026-05-04 19:27 46.11905 10.76100 36179 ft 463 kts
2026-05-04 19:27 46.18223 10.77949 36181 ft 463 kts
2026-05-04 19:28 46.24547 10.79822 36179 ft 463 kts
2026-05-04 19:28 46.30852 10.81692 36176 ft 464 kts
2026-05-04 19:29 46.37185 10.83577 36176 ft 464 kts
2026-05-04 19:29 46.43502 10.85464 36173 ft 464 kts
2026-05-04 19:30 46.49833 10.87362 36176 ft 464 kts
2026-05-04 19:30 46.56147 10.89261 36168 ft 464 kts
2026-05-04 19:31 46.62484 10.91162 36160 ft 464 kts
2026-05-04 19:31 46.68799 10.93074 36142 ft 464 kts
2026-05-04 19:31 46.71972 10.94037 35650 ft 465 kts
2026-05-04 19:32 46.75132 10.94993 35158 ft 466 kts
2026-05-04 19:32 46.78277 10.95942 34668 ft 467 kts
2026-05-04 19:32 46.81496 10.96916 34175 ft 468 kts 10°
2026-05-04 19:32 46.84697 10.97887 33631 ft 469 kts 10°
2026-05-04 19:33 46.87892 10.98855 33088 ft 471 kts 10°
2026-05-04 19:33 46.91102 10.99831 32555 ft 473 kts 10°
2026-05-04 19:33 46.94345 11.00789 32011 ft 474 kts
2026-05-04 19:33 46.97624 11.01344 31502 ft 475 kts
2026-05-04 19:34 47.00912 11.01834 31005 ft 477 kts
2026-05-04 19:34 47.04214 11.02333 30487 ft 477 kts
2026-05-04 19:34 47.07519 11.02835 29987 ft 478 kts
2026-05-04 19:34 47.10820 11.03338 29394 ft 477 kts
2026-05-04 19:35 47.14022 11.03827 28857 ft 477 kts
2026-05-04 19:35 47.17307 11.04331 28317 ft 479 kts
2026-05-04 19:35 47.20624 11.04839 27750 ft 477 kts
2026-05-04 19:35 47.23914 11.05341 27226 ft 475 kts
2026-05-04 19:36 47.27175 11.05838 26684 ft 472 kts
2026-05-04 19:36 47.30397 11.06333 26195 ft 466 kts
2026-05-04 19:36 47.33623 11.06829 25698 ft 463 kts
2026-05-04 19:36 47.36813 11.07318 25189 ft 459 kts
2026-05-04 19:37 47.39981 11.07805 24665 ft 456 kts
2026-05-04 19:37 47.43129 11.08288 24148 ft 454 kts
2026-05-04 19:37 47.46213 11.08759 23623 ft 451 kts
2026-05-04 19:37 47.49324 11.09232 23055 ft 447 kts
2026-05-04 19:38 47.52406 11.09704 22441 ft 443 kts
2026-05-04 19:38 47.55431 11.10501 21874 ft 441 kts 14°
2026-05-04 19:38 47.58312 11.11998 21311 ft 439 kts 23°
2026-05-04 19:38 47.60996 11.14122 20745 ft 437 kts 30°
2026-05-04 19:39 47.63615 11.16400 20201 ft 435 kts 30°
2026-05-04 19:39 47.66222 11.18663 19659 ft 432 kts 30°
2026-05-04 19:39 47.68804 11.20908 19149 ft 429 kts 30°
2026-05-04 19:39 47.71378 11.23147 18624 ft 427 kts 30°
2026-05-04 19:40 47.73976 11.25251 18094 ft 424 kts 25°
2026-05-04 19:40 47.76445 11.27563 17498 ft 421 kts 43°
2026-05-04 19:40 47.78318 11.30876 16907 ft 417 kts 53°
2026-05-04 19:40 47.80069 11.34286 16382 ft 413 kts 53°
2026-05-04 19:41 47.81844 11.37623 15879 ft 409 kts 52°
2026-05-04 19:41 47.83631 11.40885 15378 ft 405 kts 51°
2026-05-04 19:41 47.85420 11.44090 15023 ft 398 kts 51°
2026-05-04 19:41 47.87181 11.47226 14943 ft 394 kts 51°
2026-05-04 19:42 47.88933 11.50361 14950 ft 392 kts 51°
2026-05-04 19:42 47.90663 11.53477 14584 ft 389 kts 51°
2026-05-04 19:42 47.92364 11.56557 14155 ft 385 kts 51°
2026-05-04 19:42 47.94058 11.59631 13733 ft 381 kts 51°
2026-05-04 19:43 47.95729 11.62668 13237 ft 377 kts 51°
2026-05-04 19:43 47.97384 11.65688 12729 ft 374 kts 51°
2026-05-04 19:43 47.99024 11.68689 12217 ft 371 kts 51°
2026-05-04 19:43 48.00646 11.71665 11705 ft 368 kts 51°
2026-05-04 19:44 48.02260 11.74620 11194 ft 365 kts 51°
2026-05-04 19:44 48.03842 11.77516 10944 ft 354 kts 51°
2026-05-04 19:44 48.05375 11.80319 10735 ft 344 kts 51°
2026-05-04 19:44 48.06868 11.83046 10574 ft 332 kts 51°
2026-05-04 19:45 48.08306 11.85677 10461 ft 321 kts 51°
2026-05-04 19:45 48.09695 11.88217 10336 ft 311 kts 50°
2026-05-04 19:45 48.11324 11.90277 10062 ft 306 kts 33°
2026-05-04 19:45 48.13190 11.91956 9201 ft 321 kts 30°
2026-05-04 19:46 48.15163 11.93651 8533 ft 328 kts 30°
2026-05-04 19:46 48.17143 11.95342 8070 ft 327 kts 30°
2026-05-04 19:46 48.19111 11.97019 7640 ft 325 kts 30°
2026-05-04 19:46 48.21065 11.98683 7162 ft 318 kts 30°
2026-05-04 19:47 48.22894 12.00237 6996 ft 296 kts 30°
2026-05-04 19:47 48.24672 12.01746 6554 ft 286 kts 30°
2026-05-04 19:47 48.26403 12.03210 6043 ft 285 kts 30°
2026-05-04 19:47 48.28093 12.04637 5700 ft 282 kts 30°
2026-05-04 19:48 48.29791 12.06063 5341 ft 279 kts 30°
2026-05-04 19:48 48.31476 12.07453 5086 ft 272 kts 30°
2026-05-04 19:48 48.33125 12.08621 4948 ft 252 kts 13°
2026-05-04 19:48 48.34788 12.08423 4846 ft 237 kts 333°
2026-05-04 19:49 48.35916 12.06777 4764 ft 226 kts 292°
2026-05-04 19:49 48.36220 12.04517 4559 ft 220 kts 269°
2026-05-04 19:49 48.36124 12.02230 4292 ft 220 kts 263°
2026-05-04 19:49 48.35951 11.99942 4011 ft 220 kts 262°
2026-05-04 19:50 48.35777 11.97659 3725 ft 217 kts 263°
2026-05-04 19:50 48.35612 11.95460 3472 ft 205 kts 263°
2026-05-04 19:50 48.35450 11.93312 3195 ft 206 kts 263°
2026-05-04 19:50 48.35294 11.91232 2923 ft 194 kts 263°
2026-05-04 19:51 48.35146 11.89268 2690 ft 183 kts 263°
2026-05-04 19:51 48.35009 11.87464 2433 ft 166 kts 264°
2026-05-04 19:51 48.34888 11.85792 2205 ft 154 kts 265°
2026-05-04 19:51 48.34763 11.84218 2011 ft 149 kts 264°
2026-05-04 19:52 48.34652 11.82702 1792 ft 144 kts 265°
2026-05-04 19:52 48.34533 11.81195 1653 ft 144 kts 264°
2026-05-04 19:52 48.34422 11.79715 1497 ft 138 kts 265°
2026-05-04 19:52 48.34331 11.78507 1477 ft 82 kts 263°
2026-05-04 19:53 48.34318 11.77970 1485 ft 36 kts 292°
2026-05-04 19:53 48.34404 11.77681 1480 ft 26 kts 292°
2026-05-04 19:53 48.34472 11.77481 1478 ft 13 kts 313°
2026-05-04 19:53 48.34562 11.77434 1480 ft 15 kts 353°
2026-05-04 19:54 48.34636 11.77505 1483 ft 15 kts 83°
2026-05-04 19:54 48.34651 11.77727 1475 ft 26 kts 83°
2026-05-04 19:54 48.34666 11.77918 1485 ft 28 kts 84°
2026-05-04 19:54 48.34689 11.78214 1483 ft 29 kts 83°
2026-05-04 19:55 48.34712 11.78519 1480 ft 30 kts 85°
2026-05-04 19:55 48.34738 11.78834 1475 ft 31 kts 82°
2026-05-04 19:55 48.34760 11.79157 1485 ft 31 kts 82°
2026-05-04 19:55 48.34782 11.79434 1477 ft 23 kts 82°
2026-05-04 19:56 48.34844 11.79558 1482 ft 14 kts 348°
2026-05-04 19:56 48.34901 11.79549 1486 ft 0 kts 354°
2026-05-04 19:57 48.34902 11.79549 1485 ft 0 kts 354°
2026-05-04 19:58 48.34916 11.79547 1485 ft 4 kts 354°
2026-05-04 19:58 48.34954 11.79541 1484 ft 10 kts 353°
2026-05-04 19:58 48.35034 11.79526 1480 ft 12 kts 353°
2026-05-04 19:59 48.35064 11.79442 1474 ft 10 kts 250°
2026-05-04 19:59 48.35058 11.79373 1485 ft 0 kts 263°